Time,TemperatureF,DewpointF,PressureIn,WindDirection,WindDirectionDegrees,WindSpeedMPH,WindSpeedGustMPH,Humidity,HourlyPrecipIn,Conditions,Clouds,dailyrainin,SoftwareType,DateUTC
2013-04-27 00:00:00,71.5,65.0,29.99,South,169,5.0,5.0,80,0.00,,,0.00,Wunderground v.1.15,2013-04-27 05:00:00,
2013-04-27 00:06:00,71.5,65.0,29.99,South,182,5.0,8.0,80,0.00,,,0.00,Wunderground v.1.15,2013-04-27 05:06:00,
2013-04-27 00:12:00,71.5,64.6,29.99,SSE,168,5.0,8.0,79,0.00,,,0.00,Wunderground v.1.15,2013-04-27 05:12:00,
2013-04-27 00:18:00,71.7,64.8,29.99,SSE,158,6.0,11.0,79,0.00,,,0.00,Wunderground v.1.15,2013-04-27 05:18:00,
2013-04-27 00:24:00,71.9,65.0,29.99,SSE,162,6.0,7.0,79,0.00,,,0.00,Wunderground v.1.15,2013-04-27 05:24:00,
2013-04-27 00:30:00,71.9,65.0,29.99,SSE,167,4.0,4.0,79,0.00,,,0.00,Wunderground v.1.15,2013-04-27 05:30:00,
2013-04-27 00:35:00,71.7,64.8,29.98,SE,138,5.0,8.0,79,0.00,,,0.00,Wunderground v.1.15,2013-04-27 05:35:00,
2013-04-27 00:41:00,71.6,64.7,29.98,South,174,5.0,7.0,79,0.00,,,0.00,Wunderground v.1.15,2013-04-27 05:41:00,
2013-04-27 00:47:00,71.5,64.6,29.98,South,187,5.0,11.0,79,0.00,,,0.00,Wunderground v.1.15,2013-04-27 05:47:00,
2013-04-27 00:53:00,71.6,64.7,29.98,SSE,153,6.0,13.0,79,0.00,,,0.00,Wunderground v.1.15,2013-04-27 05:53:00,
2013-04-27 00:59:00,71.6,64.7,29.98,South,170,5.0,13.0,79,0.00,,,0.00,Wunderground v.1.15,2013-04-27 05:59:00,
2013-04-27 01:04:00,71.6,64.7,29.99,South,169,5.0,10.0,79,0.00,,,0.00,Wunderground v.1.15,2013-04-27 06:04:00,
2013-04-27 01:10:00,71.5,64.6,29.98,SW,214,5.0,6.0,79,0.00,,,0.00,Wunderground v.1.15,2013-04-27 06:10:00,
2013-04-27 01:16:00,71.4,64.5,29.99,South,180,5.0,6.0,79,0.00,,,0.00,Wunderground v.1.15,2013-04-27 06:16:00,
2013-04-27 01:22:00,71.3,65.0,29.98,SW,219,6.0,12.0,79,0.00,,,0.00,weatherlink.com 1.10,2013-04-27 06:22:00,
2013-04-27 01:27:00,71.2,64.4,29.99,SSW,195,5.0,8.0,79,0.00,,,0.00,Wunderground v.1.15,2013-04-27 06:27:00,
2013-04-27 01:32:00,71.1,64.3,29.99,SSE,159,4.0,6.0,79,0.00,,,0.00,Wunderground v.1.15,2013-04-27 06:32:00,
2013-04-27 01:38:00,71.0,64.2,29.99,SSW,207,4.0,7.0,79,0.00,,,0.00,Wunderground v.1.15,2013-04-27 06:38:00,
2013-04-27 01:44:00,70.9,64.1,29.99,SSE,167,5.0,6.0,79,0.00,,,0.00,Wunderground v.1.15,2013-04-27 06:44:00,
2013-04-27 01:49:00,70.7,63.9,29.99,SSE,168,5.0,10.0,79,0.00,,,0.00,Wunderground v.1.15,2013-04-27 06:49:00,
2013-04-27 01:55:00,70.5,63.7,29.99,South,188,5.0,7.0,79,0.00,,,0.00,Wunderground v.1.15,2013-04-27 06:55:00,
2013-04-27 02:00:00,70.4,63.9,29.99,South,183,4.0,6.0,80,0.00,,,0.00,Wunderground v.1.15,2013-04-27 07:00:00,
2013-04-27 02:06:00,70.3,64.0,29.99,SSE,153,3.0,10.0,79,0.00,,,0.00,weatherlink.com 1.10,2013-04-27 07:06:00,
2013-04-27 02:12:00,70.3,63.5,29.99,South,175,5.0,6.0,79,0.00,,,0.00,Wunderground v.1.15,2013-04-27 07:12:00,
2013-04-27 02:18:00,70.1,63.3,29.99,South,183,4.0,6.0,79,0.00,,,0.00,Wunderground v.1.15,2013-04-27 07:18:00,
2013-04-27 02:24:00,69.9,63.1,29.99,SSE,161,3.0,5.0,79,0.00,,,0.00,Wunderground v.1.15,2013-04-27 07:24:00,
2013-04-27 02:29:00,69.7,63.3,30.00,South,183,3.0,5.0,80,0.00,,,0.00,Wunderground v.1.15,2013-04-27 07:29:00,
2013-04-27 02:34:00,69.4,63.0,30.00,South,171,3.0,5.0,80,0.00,,,0.00,Wunderground v.1.15,2013-04-27 07:34:00,
2013-04-27 02:40:00,69.2,63.1,30.01,SE,144,2.0,2.0,81,0.00,,,0.00,Wunderground v.1.15,2013-04-27 07:40:00,
2013-04-27 02:45:00,69.1,63.0,30.01,SE,136,1.0,2.0,81,0.00,,,0.00,Wunderground v.1.15,2013-04-27 07:45:00,
2013-04-27 02:51:00,69.0,63.0,30.02,SSE,161,1.0,3.0,82,0.00,,,0.00,weatherlink.com 1.10,2013-04-27 07:51:00,
2013-04-27 02:56:00,69.0,63.3,30.01,West,263,0.0,1.0,82,0.00,,,0.00,Wunderground v.1.15,2013-04-27 07:56:00,
2013-04-27 03:01:00,69.1,63.4,30.01,NNW,342,0.0,2.0,82,0.00,,,0.00,Wunderground v.1.15,2013-04-27 08:01:00,
2013-04-27 03:07:00,69.2,64.0,30.01,SSW,205,1.0,5.0,82,0.00,,,0.00,weatherlink.com 1.10,2013-04-27 08:07:00,
2013-04-27 03:12:00,69.3,63.6,30.01,South,171,1.0,2.0,82,0.00,,,0.00,Wunderground v.1.15,2013-04-27 08:12:00,
2013-04-27 03:18:00,69.3,63.6,30.01,South,184,2.0,3.0,82,0.00,,,0.00,Wunderground v.1.15,2013-04-27 08:18:00,
2013-04-27 03:24:00,69.3,63.6,30.00,SSE,155,3.0,7.0,82,0.00,,,0.00,Wunderground v.1.15,2013-04-27 08:24:00,
2013-04-27 03:30:00,69.1,63.4,30.00,SSW,197,4.0,4.0,82,0.00,,,0.00,Wunderground v.1.15,2013-04-27 08:30:00,
2013-04-27 03:36:00,69.1,63.0,30.00,South,179,6.0,9.0,82,0.00,,,0.00,weatherlink.com 1.10,2013-04-27 08:36:00,
2013-04-27 03:41:00,69.1,63.4,30.00,South,190,4.0,6.0,82,0.00,,,0.00,Wunderground v.1.15,2013-04-27 08:41:00,
2013-04-27 03:47:00,69.1,63.4,30.00,SSW,192,5.0,13.0,82,0.00,,,0.00,Wunderground v.1.15,2013-04-27 08:47:00,
2013-04-27 03:52:00,69.1,63.4,29.99,SSW,200,5.0,6.0,82,0.00,,,0.00,Wunderground v.1.15,2013-04-27 08:52:00,
2013-04-27 03:58:00,69.2,63.5,29.99,SSW,200,4.0,6.0,82,0.00,,,0.00,Wunderground v.1.15,2013-04-27 08:58:00,
2013-04-27 04:04:00,69.2,63.5,29.99,SSW,198,5.0,5.0,82,0.00,,,0.00,Wunderground v.1.15,2013-04-27 09:04:00,
2013-04-27 04:10:00,69.3,63.6,29.99,SSW,205,5.0,7.0,82,0.00,,,0.00,Wunderground v.1.15,2013-04-27 09:10:00,
2013-04-27 04:15:00,69.3,63.6,29.99,South,182,6.0,7.0,82,0.00,,,0.00,Wunderground v.1.15,2013-04-27 09:15:00,
2013-04-27 04:21:00,69.3,63.6,29.99,SW,225,5.0,5.0,82,0.00,,,0.00,Wunderground v.1.15,2013-04-27 09:21:00,
2013-04-27 04:26:00,69.2,63.5,29.99,South,187,5.0,7.0,82,0.00,,,0.00,Wunderground v.1.15,2013-04-27 09:26:00,
2013-04-27 04:36:00,69.1,63.0,29.98,ESE,121,5.0,10.0,82,0.00,,,0.00,weatherlink.com 1.10,2013-04-27 09:36:00,
2013-04-27 04:51:00,69.0,64.0,29.98,SSW,198,6.0,12.0,83,0.00,,,0.00,weatherlink.com 1.10,2013-04-27 09:51:00,
2013-04-27 05:06:00,68.8,64.0,29.98,SSW,201,7.0,12.0,83,0.00,,,0.00,weatherlink.com 1.10,2013-04-27 10:06:00,
2013-04-27 05:21:00,68.6,64.0,29.98,South,176,3.0,11.0,84,0.00,,,0.00,weatherlink.com 1.10,2013-04-27 10:21:00,
2013-04-27 05:36:00,68.4,64.0,29.97,South,177,4.0,12.0,85,0.00,,,0.00,weatherlink.com 1.10,2013-04-27 10:36:00,
2013-04-27 05:51:00,68.3,64.0,29.98,SSE,162,3.0,10.0,85,0.00,,,0.00,weatherlink.com 1.10,2013-04-27 10:51:00,
2013-04-27 06:06:00,68.2,63.9,29.98,SSE,165,3.0,3.0,86,0.00,,,0.00,Wunderground v.1.15,2013-04-27 11:06:00,
2013-04-27 06:11:00,68.1,63.8,29.98,South,169,3.0,4.0,86,0.00,,,0.00,Wunderground v.1.15,2013-04-27 11:11:00,
2013-04-27 06:17:00,68.0,63.7,29.98,South,174,3.0,4.0,86,0.00,,,0.00,Wunderground v.1.15,2013-04-27 11:17:00,
2013-04-27 06:23:00,67.9,63.6,29.99,SSE,168,3.0,4.0,86,0.00,,,0.00,Wunderground v.1.15,2013-04-27 11:23:00,
2013-04-27 06:29:00,67.7,63.4,29.98,South,182,3.0,4.0,86,0.00,,,0.00,Wunderground v.1.15,2013-04-27 11:29:00,
2013-04-27 06:34:00,67.6,63.6,29.99,SSE,157,3.0,4.0,87,0.00,,,0.00,Wunderground v.1.15,2013-04-27 11:34:00,
2013-04-27 06:40:00,67.5,63.5,29.99,South,169,3.0,3.0,87,0.00,,,0.00,Wunderground v.1.15,2013-04-27 11:40:00,
2013-04-27 06:46:00,67.4,63.4,29.99,SE,140,3.0,3.0,87,0.00,,,0.00,Wunderground v.1.15,2013-04-27 11:46:00,
2013-04-27 06:52:00,67.3,64.0,29.99,South,179,2.0,8.0,88,0.00,,,0.00,weatherlink.com 1.10,2013-04-27 11:52:00,
2013-04-27 06:57:00,67.2,63.5,29.99,South,170,3.0,3.0,88,0.00,,,0.00,Wunderground v.1.15,2013-04-27 11:57:00,
2013-04-27 07:02:00,67.2,63.5,29.99,SSE,164,2.0,5.0,88,0.00,,,0.00,Wunderground v.1.15,2013-04-27 12:02:00,
2013-04-27 07:08:00,67.2,63.5,30.00,SSE,156,2.0,5.0,88,0.00,,,0.00,Wunderground v.1.15,2013-04-27 12:08:00,
2013-04-27 07:14:00,67.2,63.5,30.00,SSW,211,2.0,5.0,88,0.00,,,0.00,Wunderground v.1.15,2013-04-27 12:14:00,
2013-04-27 07:20:00,67.3,63.6,30.00,ESE,115,3.0,3.0,88,0.00,,,0.00,Wunderground v.1.15,2013-04-27 12:20:00,
2013-04-27 07:25:00,67.3,63.6,30.00,South,189,3.0,8.0,88,0.00,,,0.00,Wunderground v.1.15,2013-04-27 12:25:00,
2013-04-27 07:31:00,67.4,63.7,30.01,South,186,3.0,3.0,88,0.00,,,0.00,Wunderground v.1.15,2013-04-27 12:31:00,
2013-04-27 07:37:00,67.4,64.0,30.01,SSE,164,0.0,6.0,88,0.00,,,0.00,weatherlink.com 1.10,2013-04-27 12:37:00,
2013-04-27 07:43:00,67.5,64.1,30.01,SE,142,1.0,1.0,89,0.00,,,0.00,Wunderground v.1.15,2013-04-27 12:43:00,
2013-04-27 07:49:00,67.6,63.9,30.02,NNE,28,1.0,2.0,88,0.00,,,0.00,Wunderground v.1.15,2013-04-27 12:49:00,
2013-04-27 07:55:00,67.7,64.0,30.02,SW,221,1.0,2.0,88,0.00,,,0.00,Wunderground v.1.15,2013-04-27 12:55:00,
2013-04-27 08:00:00,67.7,64.0,30.02,WNW,296,0.0,3.0,88,0.00,,,0.00,Wunderground v.1.15,2013-04-27 13:00:00,
2013-04-27 08:06:00,67.8,64.4,30.03,WNW,303,1.0,8.0,89,0.00,,,0.00,Wunderground v.1.15,2013-04-27 13:06:00,
2013-04-27 08:12:00,67.4,62.4,30.03,NNW,327,4.0,6.0,84,0.00,,,0.00,Wunderground v.1.15,2013-04-27 13:12:00,
2013-04-27 08:17:00,67.2,61.9,30.03,WNW,298,4.0,6.0,83,0.00,,,0.00,Wunderground v.1.15,2013-04-27 13:17:00,
2013-04-27 08:22:00,67.0,61.0,30.03,NW,311,4.0,9.0,82,0.00,,,0.00,weatherlink.com 1.10,2013-04-27 13:22:00,
2013-04-27 08:27:00,66.9,60.9,30.03,NW,321,5.0,9.0,81,0.00,,,0.00,Wunderground v.1.15,2013-04-27 13:27:00,
2013-04-27 08:33:00,66.8,60.8,30.03,NNW,340,5.0,7.0,81,0.00,,,0.00,Wunderground v.1.15,2013-04-27 13:33:00,
2013-04-27 08:39:00,66.8,60.8,30.04,NW,314,4.0,8.0,81,0.00,,,0.00,Wunderground v.1.15,2013-04-27 13:39:00,
2013-04-27 08:44:00,66.8,60.8,30.04,NW,319,4.0,10.0,81,0.00,,,0.00,Wunderground v.1.15,2013-04-27 13:44:00,
2013-04-27 08:49:00,66.8,60.4,30.04,NW,319,4.0,10.0,80,0.00,,,0.00,Wunderground v.1.15,2013-04-27 13:49:00,
2013-04-27 08:55:00,66.9,60.5,30.04,NW,317,5.0,8.0,80,0.00,,,0.00,Wunderground v.1.15,2013-04-27 13:55:00,
2013-04-27 09:00:00,66.8,60.4,30.04,NW,306,4.0,4.0,80,0.00,,,0.00,Wunderground v.1.15,2013-04-27 14:00:00,
2013-04-27 09:06:00,66.7,60.0,30.05,NNW,327,4.0,6.0,79,0.00,,,0.00,Wunderground v.1.15,2013-04-27 14:06:00,
2013-04-27 09:12:00,66.6,60.2,30.05,WNW,294,5.0,5.0,80,0.00,,,0.00,Wunderground v.1.15,2013-04-27 14:12:00,
2013-04-27 09:17:00,66.6,60.2,30.05,North,355,4.0,9.0,80,0.00,,,0.00,Wunderground v.1.15,2013-04-27 14:17:00,
2013-04-27 09:23:00,66.6,60.2,30.05,NW,321,6.0,7.0,80,0.00,,,0.00,Wunderground v.1.15,2013-04-27 14:23:00,
2013-04-27 09:29:00,66.8,60.4,30.05,NW,315,6.0,7.0,80,0.00,,,0.00,Wunderground v.1.15,2013-04-27 14:29:00,
2013-04-27 09:34:00,67.2,60.5,30.05,NW,318,6.0,10.0,79,0.00,,,0.00,Wunderground v.1.15,2013-04-27 14:34:00,
2013-04-27 09:40:00,67.5,60.4,30.05,NNW,336,6.0,6.0,78,0.00,,,0.00,Wunderground v.1.15,2013-04-27 14:40:00,
2013-04-27 09:45:00,67.9,60.4,30.06,WNW,296,7.0,10.0,77,0.00,,,0.00,Wunderground v.1.15,2013-04-27 14:45:00,
2013-04-27 09:51:00,67.5,60.0,30.06,NNW,339,7.0,7.0,77,0.00,,,0.00,Wunderground v.1.15,2013-04-27 14:51:00,
2013-04-27 09:57:00,67.2,60.1,30.06,NW,325,6.0,10.0,78,0.00,,,0.00,Wunderground v.1.15,2013-04-27 14:57:00,
2013-04-27 10:02:00,67.6,60.5,30.06,NNW,340,6.0,8.0,78,0.00,,,0.00,Wunderground v.1.15,2013-04-27 15:02:00,
2013-04-27 10:08:00,67.7,60.2,30.06,NW,313,6.0,8.0,77,0.00,,,0.00,Wunderground v.1.15,2013-04-27 15:08:00,
2013-04-27 10:14:00,67.2,59.7,30.06,NW,315,6.0,8.0,77,0.00,,,0.00,Wunderground v.1.15,2013-04-27 15:14:00,
2013-04-27 10:20:00,67.2,60.1,30.06,NW,315,5.0,5.0,78,0.00,,,0.00,Wunderground v.1.15,2013-04-27 15:20:00,
2013-04-27 10:25:00,67.0,59.5,30.06,NW,315,6.0,9.0,77,0.00,,,0.00,Wunderground v.1.15,2013-04-27 15:25:00,
2013-04-27 10:31:00,67.2,59.7,30.06,WNW,296,6.0,7.0,77,0.00,,,0.00,Wunderground v.1.15,2013-04-27 15:31:00,
2013-04-27 10:36:00,67.0,59.5,30.07,West,277,5.0,7.0,77,0.00,,,0.00,Wunderground v.1.15,2013-04-27 15:36:00,
2013-04-27 10:42:00,66.6,59.5,30.07,NW,316,5.0,9.0,78,0.00,,,0.00,Wunderground v.1.15,2013-04-27 15:42:00,
2013-04-27 10:48:00,66.4,59.3,30.07,WNW,284,6.0,13.0,78,0.00,,,0.00,Wunderground v.1.15,2013-04-27 15:48:00,
2013-04-27 10:54:00,66.8,59.4,30.07,North,360,7.0,9.0,77,0.00,,,0.00,Wunderground v.1.15,2013-04-27 15:54:00,
2013-04-27 11:00:00,67.2,59.4,30.07,North,349,7.0,7.0,76,0.00,,,0.00,Wunderground v.1.15,2013-04-27 16:00:00,
2013-04-27 11:05:00,67.1,59.3,30.07,North,355,6.0,8.0,76,0.00,,,0.00,Wunderground v.1.15,2013-04-27 16:05:00,
2013-04-27 11:11:00,67.3,59.1,30.07,North,360,5.0,7.0,75,0.00,,,0.00,Wunderground v.1.15,2013-04-27 16:11:00,
2013-04-27 11:17:00,67.1,59.3,30.07,NNW,337,6.0,8.0,76,0.00,,,0.00,Wunderground v.1.15,2013-04-27 16:17:00,
2013-04-27 11:22:00,67.0,59.2,30.08,NNW,333,7.0,10.0,76,0.00,,,0.00,Wunderground v.1.15,2013-04-27 16:22:00,
2013-04-27 11:28:00,67.9,59.7,30.08,WNW,297,5.0,10.0,75,0.00,,,0.00,Wunderground v.1.15,2013-04-27 16:28:00,
2013-04-27 11:34:00,67.7,59.5,30.08,NW,308,5.0,9.0,75,0.00,,,0.00,Wunderground v.1.15,2013-04-27 16:34:00,
2013-04-27 11:40:00,67.5,58.9,30.08,NNW,329,7.0,7.0,74,0.00,,,0.00,Wunderground v.1.15,2013-04-27 16:40:00,
2013-04-27 11:46:00,68.0,59.0,30.09,NNW,333,5.0,7.0,73,0.00,,,0.00,Wunderground v.1.15,2013-04-27 16:46:00,
2013-04-27 11:51:00,68.3,59.3,30.09,NNW,344,5.0,7.0,73,0.00,,,0.00,Wunderground v.1.15,2013-04-27 16:51:00,
2013-04-27 11:57:00,68.4,59.4,30.09,NNW,327,5.0,11.0,73,0.00,,,0.00,Wunderground v.1.15,2013-04-27 16:57:00,
2013-04-27 12:02:00,68.3,58.9,30.10,NW,308,5.0,5.0,72,0.00,,,0.00,Wunderground v.1.15,2013-04-27 17:02:00,
2013-04-27 12:08:00,68.3,59.0,30.10,WNW,296,3.0,10.0,73,0.00,,,0.00,weatherlink.com 1.10,2013-04-27 17:08:00,
2013-04-27 12:13:00,68.0,58.6,30.10,NW,317,4.0,6.0,72,0.00,,,0.00,Wunderground v.1.15,2013-04-27 17:13:00,
2013-04-27 12:19:00,68.1,59.1,30.10,West,269,4.0,8.0,73,0.00,,,0.00,Wunderground v.1.15,2013-04-27 17:19:00,
2013-04-27 12:24:00,68.5,59.1,30.10,West,276,5.0,10.0,72,0.00,,,0.00,Wunderground v.1.15,2013-04-27 17:24:00,
2013-04-27 12:30:00,68.6,58.8,30.10,North,10,6.0,6.0,71,0.00,,,0.00,Wunderground v.1.15,2013-04-27 17:30:00,
2013-04-27 12:36:00,68.6,59.2,30.10,NW,324,5.0,7.0,72,0.00,,,0.00,Wunderground v.1.15,2013-04-27 17:36:00,
2013-04-27 12:42:00,68.6,58.8,30.09,NW,314,4.0,5.0,71,0.00,,,0.00,Wunderground v.1.15,2013-04-27 17:42:00,
2013-04-27 12:48:00,68.5,58.3,30.09,WNW,297,5.0,7.0,70,0.00,,,0.00,Wunderground v.1.15,2013-04-27 17:48:00,
2013-04-27 12:54:00,68.4,58.6,30.09,NW,315,5.0,6.0,71,0.00,,,0.00,Wunderground v.1.15,2013-04-27 17:54:00,
2013-04-27 13:00:00,68.6,58.8,30.09,WNW,303,4.0,4.0,71,0.00,,,0.00,Wunderground v.1.15,2013-04-27 18:00:00,
2013-04-27 13:05:00,69.0,58.4,30.09,NW,311,4.0,9.0,69,0.00,,,0.00,Wunderground v.1.15,2013-04-27 18:05:00,
2013-04-27 13:11:00,69.0,58.0,30.09,NNW,327,5.0,6.0,68,0.00,,,0.00,Wunderground v.1.15,2013-04-27 18:11:00,
2013-04-27 13:16:00,68.9,58.3,30.09,WNW,303,5.0,6.0,69,0.00,,,0.00,Wunderground v.1.15,2013-04-27 18:16:00,
2013-04-27 13:21:00,68.3,57.7,30.09,WNW,294,5.0,8.0,69,0.00,,,0.00,Wunderground v.1.15,2013-04-27 18:21:00,
2013-04-27 13:27:00,67.9,58.1,30.09,North,355,6.0,10.0,71,0.00,,,0.00,Wunderground v.1.15,2013-04-27 18:27:00,
2013-04-27 13:33:00,68.2,57.6,30.09,NNW,346,6.0,8.0,69,0.00,,,0.00,Wunderground v.1.15,2013-04-27 18:33:00,
2013-04-27 13:39:00,68.4,57.0,30.08,NW,319,5.0,12.0,68,0.00,,,0.00,weatherlink.com 1.10,2013-04-27 18:39:00,
2013-04-27 13:44:00,68.8,57.8,30.08,North,349,6.0,8.0,68,0.00,,,0.00,Wunderground v.1.15,2013-04-27 18:44:00,
2013-04-27 13:50:00,69.1,57.7,30.08,NW,322,6.0,7.0,67,0.00,,,0.00,Wunderground v.1.15,2013-04-27 18:50:00,
2013-04-27 13:56:00,68.3,56.5,30.08,NW,322,5.0,9.0,66,0.00,,,0.00,Wunderground v.1.15,2013-04-27 18:56:00,
2013-04-27 14:01:00,68.9,56.6,30.08,NW,306,5.0,10.0,65,0.00,,,0.00,Wunderground v.1.15,2013-04-27 19:01:00,
2013-04-27 14:07:00,68.4,57.0,30.08,NNW,340,5.0,10.0,67,0.00,,,0.00,Wunderground v.1.15,2013-04-27 19:07:00,
2013-04-27 14:13:00,68.4,56.6,30.08,NNE,15,4.0,8.0,66,0.00,,,0.00,Wunderground v.1.15,2013-04-27 19:13:00,
2013-04-27 14:19:00,67.7,56.8,30.07,NNW,342,4.0,8.0,68,0.00,,,0.00,Wunderground v.1.15,2013-04-27 19:19:00,
2013-04-27 14:25:00,68.2,57.0,30.07,NNW,338,5.0,8.0,67,0.00,,,0.00,weatherlink.com 1.10,2013-04-27 19:25:00,
2013-04-27 14:30:00,67.5,56.2,30.07,NNW,346,4.0,4.0,67,0.00,,,0.00,Wunderground v.1.15,2013-04-27 19:30:00,
2013-04-27 14:36:00,68.0,56.6,30.07,NNE,32,4.0,7.0,67,0.00,,,0.00,Wunderground v.1.15,2013-04-27 19:36:00,
2013-04-27 14:41:00,68.9,56.6,30.07,North,355,4.0,4.0,65,0.00,,,0.00,Wunderground v.1.15,2013-04-27 19:41:00,
2013-04-27 14:47:00,69.9,58.0,30.06,NNW,337,3.0,5.0,66,0.00,,,0.00,Wunderground v.1.15,2013-04-27 19:47:00,
2013-04-27 14:52:00,70.4,57.2,30.06,NW,323,4.0,6.0,63,0.00,,,0.00,Wunderground v.1.15,2013-04-27 19:52:00,
2013-04-27 14:57:00,70.2,58.3,30.06,NNW,335,4.0,11.0,66,0.00,,,0.00,Wunderground v.1.15,2013-04-27 19:57:00,
2013-04-27 15:03:00,70.1,57.8,30.06,NNW,339,4.0,8.0,65,0.00,,,0.00,Wunderground v.1.15,2013-04-27 20:03:00,
2013-04-27 15:09:00,69.7,57.8,30.05,NNW,332,5.0,8.0,66,0.00,,,0.00,Wunderground v.1.15,2013-04-27 20:09:00,
2013-04-27 15:14:00,70.2,57.4,30.05,NNW,328,5.0,8.0,64,0.00,,,0.00,Wunderground v.1.15,2013-04-27 20:14:00,
2013-04-27 15:20:00,70.5,57.3,30.05,North,5,4.0,4.0,63,0.00,,,0.00,Wunderground v.1.15,2013-04-27 20:20:00,
2013-04-27 15:26:00,71.1,57.9,30.05,NW,315,4.0,5.0,63,0.00,,,0.00,Wunderground v.1.15,2013-04-27 20:26:00,
2013-04-27 15:31:00,71.0,58.2,30.05,NNE,25,4.0,4.0,64,0.00,,,0.00,Wunderground v.1.15,2013-04-27 20:31:00,
2013-04-27 15:36:00,71.5,58.2,30.05,North,11,3.0,8.0,63,0.00,,,0.00,Wunderground v.1.15,2013-04-27 20:36:00,
2013-04-27 15:42:00,71.5,57.8,30.04,NNW,327,3.0,4.0,62,0.00,,,0.00,Wunderground v.1.15,2013-04-27 20:42:00,
2013-04-27 15:48:00,71.1,57.4,30.04,NNW,346,4.0,6.0,62,0.00,,,0.00,Wunderground v.1.15,2013-04-27 20:48:00,
2013-04-27 15:54:00,70.8,58.0,30.04,NW,325,0.0,8.0,65,0.00,,,0.00,weatherlink.com 1.10,2013-04-27 20:54:00,
2013-04-27 15:59:00,71.8,58.1,30.04,North,5,3.0,9.0,62,0.00,,,0.00,Wunderground v.1.15,2013-04-27 20:59:00,
2013-04-27 16:04:00,72.4,58.6,30.04,North,9,4.0,4.0,62,0.00,,,0.00,Wunderground v.1.15,2013-04-27 21:04:00,
2013-04-27 16:10:00,72.0,58.0,30.03,NW,316,5.0,9.0,61,0.00,,,0.00,weatherlink.com 1.10,2013-04-27 21:10:00,
2013-04-27 16:16:00,72.1,57.4,30.02,North,355,3.0,5.0,60,0.00,,,0.00,Wunderground v.1.15,2013-04-27 21:16:00,
2013-04-27 16:22:00,72.3,58.1,30.02,North,355,3.0,7.0,61,0.00,,,0.00,Wunderground v.1.15,2013-04-27 21:22:00,
2013-04-27 16:28:00,72.5,58.3,30.02,WNW,300,3.0,7.0,61,0.00,,,0.00,Wunderground v.1.15,2013-04-27 21:28:00,
2013-04-27 16:33:00,72.4,57.7,30.02,NW,321,4.0,6.0,60,0.00,,,0.00,Wunderground v.1.15,2013-04-27 21:33:00,
2013-04-27 16:39:00,72.6,58.0,30.02,North,360,2.0,8.0,60,0.00,,,0.00,weatherlink.com 1.10,2013-04-27 21:39:00,
2013-04-27 16:44:00,73.0,58.8,30.02,North,360,3.0,4.0,61,0.00,,,0.00,Wunderground v.1.15,2013-04-27 21:44:00,
2013-04-27 16:50:00,73.0,57.3,30.02,WNW,290,4.0,4.0,58,0.00,,,0.00,Wunderground v.1.15,2013-04-27 21:50:00,
2013-04-27 16:56:00,72.5,57.0,30.02,North,360,5.0,10.0,58,0.00,,,0.00,weatherlink.com 1.10,2013-04-27 21:56:00,
2013-04-27 17:01:00,71.5,56.9,30.01,NW,326,4.0,5.0,60,0.00,,,0.00,Wunderground v.1.15,2013-04-27 22:01:00,
2013-04-27 17:07:00,71.4,57.2,30.01,NW,311,5.0,8.0,61,0.00,,,0.00,Wunderground v.1.15,2013-04-27 22:07:00,
2013-04-27 17:12:00,72.0,56.9,30.01,NW,309,4.0,5.0,59,0.00,,,0.00,Wunderground v.1.15,2013-04-27 22:12:00,
2013-04-27 17:18:00,72.2,58.0,30.01,NNE,22,3.0,6.0,61,0.00,,,0.00,Wunderground v.1.15,2013-04-27 22:18:00,
2013-04-27 17:23:00,72.7,57.1,30.01,NE,34,3.0,5.0,58,0.00,,,0.00,Wunderground v.1.15,2013-04-27 22:23:00,
2013-04-27 17:29:00,72.7,57.5,30.01,NW,325,4.0,8.0,59,0.00,,,0.00,Wunderground v.1.15,2013-04-27 22:29:00,
2013-04-27 17:35:00,72.8,57.2,30.01,NW,319,3.0,5.0,58,0.00,,,0.00,Wunderground v.1.15,2013-04-27 22:35:00,
2013-04-27 17:40:00,73.0,57.3,30.01,NNE,13,3.0,3.0,58,0.00,,,0.00,Wunderground v.1.15,2013-04-27 22:40:00,
2013-04-27 17:45:00,73.5,58.3,30.01,NNW,342,3.0,4.0,59,0.00,,,0.00,Wunderground v.1.15,2013-04-27 22:45:00,
2013-04-27 17:51:00,73.8,57.6,30.01,NNE,20,3.0,3.0,57,0.00,,,0.00,Wunderground v.1.15,2013-04-27 22:51:00,
2013-04-27 17:57:00,73.8,58.1,30.01,NNE,13,3.0,9.0,58,0.00,,,0.00,Wunderground v.1.15,2013-04-27 22:57:00,
2013-04-27 18:03:00,73.7,58.0,30.01,East,87,2.0,3.0,58,0.00,,,0.00,Wunderground v.1.15,2013-04-27 23:03:00,
2013-04-27 18:09:00,74.2,57.5,30.01,NW,305,1.0,3.0,56,0.00,,,0.00,Wunderground v.1.15,2013-04-27 23:09:00,
2013-04-27 18:15:00,74.0,56.8,30.01,NNE,30,2.0,5.0,55,0.00,,,0.00,Wunderground v.1.15,2013-04-27 23:15:00,
2013-04-27 18:21:00,73.0,56.4,30.01,NE,36,3.0,5.0,56,0.00,,,0.00,Wunderground v.1.15,2013-04-27 23:21:00,
2013-04-27 18:27:00,73.1,57.4,30.01,North,360,3.0,5.0,58,0.00,,,0.00,Wunderground v.1.15,2013-04-27 23:27:00,
2013-04-27 18:32:00,73.0,56.9,30.01,NNW,338,3.0,4.0,57,0.00,,,0.00,Wunderground v.1.15,2013-04-27 23:32:00,
2013-04-27 18:38:00,73.6,56.9,30.01,NNW,346,3.0,4.0,56,0.00,,,0.00,Wunderground v.1.15,2013-04-27 23:38:00,
2013-04-27 18:44:00,73.3,57.1,30.01,NW,304,2.0,2.0,57,0.00,,,0.00,Wunderground v.1.15,2013-04-27 23:44:00,
2013-04-27 18:50:00,73.5,56.3,30.01,North,5,2.0,3.0,55,0.00,,,0.00,Wunderground v.1.15,2013-04-27 23:50:00,
2013-04-27 18:56:00,73.5,57.0,30.00,North,360,2.0,6.0,56,0.00,,,0.00,weatherlink.com 1.10,2013-04-27 23:56:00,
2013-04-27 19:02:00,73.5,56.3,30.01,NNW,342,3.0,6.0,55,0.00,,,0.00,Wunderground v.1.15,2013-04-28 00:02:00,
2013-04-27 19:08:00,72.7,56.1,30.00,NNW,343,3.0,6.0,56,0.00,,,0.00,Wunderground v.1.15,2013-04-28 00:08:00,
2013-04-27 19:14:00,72.0,56.9,30.00,NW,318,2.0,3.0,59,0.00,,,0.00,Wunderground v.1.15,2013-04-28 00:14:00,
2013-04-27 19:20:00,71.5,56.9,30.00,North,360,1.0,1.0,60,0.00,,,0.00,Wunderground v.1.15,2013-04-28 00:20:00,
2013-04-27 19:26:00,71.2,56.6,29.99,NNW,342,1.0,3.0,60,0.00,,,0.00,Wunderground v.1.15,2013-04-28 00:26:00,
2013-04-27 19:32:00,70.8,56.7,29.99,North,5,1.0,4.0,61,0.00,,,0.00,Wunderground v.1.15,2013-04-28 00:32:00,
2013-04-27 19:37:00,70.5,56.9,29.99,NNE,12,1.0,4.0,62,0.00,,,0.00,Wunderground v.1.15,2013-04-28 00:37:00,
2013-04-27 19:43:00,70.1,56.9,29.99,North,360,1.0,1.0,63,0.00,,,0.00,Wunderground v.1.15,2013-04-28 00:43:00,
2013-04-27 19:49:00,69.7,57.0,29.99,North,5,0.0,1.0,64,0.00,,,0.00,Wunderground v.1.15,2013-04-28 00:49:00,
2013-04-27 19:54:00,69.4,56.7,29.98,North,5,0.0,0.0,64,0.00,,,0.00,Wunderground v.1.15,2013-04-28 00:54:00,
2013-04-27 20:00:00,69.0,56.7,29.98,North,5,0.0,0.0,65,0.00,,,0.00,Wunderground v.1.15,2013-04-28 01:00:00,
2013-04-27 20:06:00,68.5,56.7,29.98,North,5,0.0,0.0,66,0.00,,,0.00,Wunderground v.1.15,2013-04-28 01:06:00,
2013-04-27 20:11:00,68.1,56.7,29.98,North,5,0.0,0.0,67,0.00,,,0.00,Wunderground v.1.15,2013-04-28 01:11:00,
2013-04-27 20:16:00,67.6,56.7,29.98,North,5,0.0,0.0,68,0.00,,,0.00,Wunderground v.1.15,2013-04-28 01:16:00,
2013-04-27 20:21:00,67.2,56.7,29.98,North,5,0.0,0.0,69,0.00,,,0.00,Wunderground v.1.15,2013-04-28 01:21:00,
2013-04-27 20:26:00,66.9,56.8,29.98,North,5,0.0,0.0,70,0.00,,,0.00,Wunderground v.1.15,2013-04-28 01:26:00,
2013-04-27 20:32:00,66.6,56.5,29.98,North,5,0.0,0.0,70,0.00,,,0.00,Wunderground v.1.15,2013-04-28 01:32:00,
2013-04-27 20:37:00,66.3,57.0,29.98,North,5,0.0,0.0,72,0.00,,,0.00,Wunderground v.1.15,2013-04-28 01:37:00,
2013-04-27 20:43:00,65.8,56.9,29.98,North,5,0.0,0.0,73,0.00,,,0.00,Wunderground v.1.15,2013-04-28 01:43:00,
2013-04-27 20:49:00,65.5,56.6,29.98,North,5,0.0,0.0,73,0.00,,,0.00,Wunderground v.1.15,2013-04-28 01:49:00,
2013-04-27 20:55:00,65.3,56.0,29.98,North,5,0.0,1.0,73,0.00,,,0.00,weatherlink.com 1.10,2013-04-28 01:55:00,
2013-04-27 21:00:00,65.0,56.5,29.98,North,5,0.0,0.0,74,0.00,,,0.00,Wunderground v.1.15,2013-04-28 02:00:00,
2013-04-27 21:05:00,64.7,56.6,29.99,North,5,0.0,0.0,75,0.00,,,0.00,Wunderground v.1.15,2013-04-28 02:05:00,
2013-04-27 21:11:00,64.4,56.0,29.99,North,5,0.0,0.0,75,0.00,,,0.00,weatherlink.com 1.10,2013-04-28 02:11:00,
2013-04-27 21:16:00,64.2,56.1,29.99,North,5,0.0,0.0,75,0.00,,,0.00,Wunderground v.1.15,2013-04-28 02:16:00,
2013-04-27 21:21:00,64.0,56.3,29.99,North,5,0.0,0.0,76,0.00,,,0.00,Wunderground v.1.15,2013-04-28 02:21:00,
2013-04-27 21:27:00,63.9,56.2,30.00,North,5,0.0,0.0,76,0.00,,,0.00,Wunderground v.1.15,2013-04-28 02:27:00,
2013-04-27 21:33:00,63.7,56.0,30.00,North,5,0.0,0.0,76,0.00,,,0.00,Wunderground v.1.15,2013-04-28 02:33:00,
2013-04-27 21:39:00,63.5,56.2,30.00,North,5,0.0,0.0,77,0.00,,,0.00,Wunderground v.1.15,2013-04-28 02:39:00,
2013-04-27 21:45:00,63.3,56.3,30.00,North,5,0.0,0.0,78,0.00,,,0.00,Wunderground v.1.15,2013-04-28 02:45:00,
2013-04-27 21:50:00,63.1,56.1,30.00,East,80,0.0,0.0,78,0.00,,,0.00,Wunderground v.1.15,2013-04-28 02:50:00,
2013-04-27 21:55:00,63.0,56.4,30.00,East,80,0.0,0.0,79,0.00,,,0.00,Wunderground v.1.15,2013-04-28 02:55:00,
2013-04-27 22:00:00,62.8,56.2,30.00,East,80,0.0,0.0,79,0.00,,,0.00,Wunderground v.1.15,2013-04-28 03:00:00,
2013-04-27 22:06:00,62.6,56.3,30.00,East,80,0.0,0.0,80,0.00,,,0.00,Wunderground v.1.15,2013-04-28 03:06:00,
2013-04-27 22:11:00,62.4,56.1,30.01,East,80,0.0,0.0,80,0.00,,,0.00,Wunderground v.1.15,2013-04-28 03:11:00,
2013-04-27 22:16:00,62.2,56.0,30.01,ENE,74,0.0,0.0,80,0.00,,,0.00,Wunderground v.1.15,2013-04-28 03:16:00,
2013-04-27 22:22:00,62.1,55.9,30.01,East,85,0.0,1.0,80,0.00,,,0.00,Wunderground v.1.15,2013-04-28 03:22:00,
2013-04-27 22:28:00,62.0,55.8,30.01,East,87,1.0,1.0,80,0.00,,,0.00,Wunderground v.1.15,2013-04-28 03:28:00,
2013-04-27 22:34:00,61.8,55.6,30.01,East,80,1.0,2.0,80,0.00,,,0.00,Wunderground v.1.15,2013-04-28 03:34:00,
2013-04-27 22:40:00,61.6,55.4,30.01,East,93,1.0,2.0,80,0.00,,,0.00,Wunderground v.1.15,2013-04-28 03:40:00,
2013-04-27 22:45:00,61.5,55.3,30.01,East,83,1.0,4.0,80,0.00,,,0.00,Wunderground v.1.15,2013-04-28 03:45:00,
2013-04-27 22:51:00,61.3,55.1,30.01,East,98,1.0,1.0,80,0.00,,,0.00,Wunderground v.1.15,2013-04-28 03:51:00,
2013-04-27 22:57:00,61.1,55.0,30.01,East,86,0.0,3.0,81,0.00,,,0.00,weatherlink.com 1.10,2013-04-28 03:57:00,
2013-04-27 23:01:00,60.9,55.0,30.01,East,90,1.0,1.0,81,0.00,,,0.00,Wunderground v.1.15,2013-04-28 04:01:00,
2013-04-27 23:02:00,60.8,55.3,30.01,NE,38,1.0,3.0,82,0.00,,,0.00,Wunderground v.1.15,2013-04-28 04:02:00,
2013-04-27 23:04:00,60.7,55.2,30.01,ESE,115,1.0,3.0,82,0.00,,,0.00,Wunderground v.1.15,2013-04-28 04:04:00,
2013-04-27 23:06:00,60.6,55.1,30.01,ENE,61,1.0,3.0,82,0.00,,,0.00,Wunderground v.1.15,2013-04-28 04:06:00,
2013-04-27 23:12:00,60.4,54.9,30.01,ENE,69,1.0,2.0,82,0.00,,,0.00,Wunderground v.1.15,2013-04-28 04:12:00,
2013-04-27 23:18:00,60.1,54.9,30.01,ENE,62,0.0,2.0,83,0.00,,,0.00,Wunderground v.1.15,2013-04-28 04:18:00,
2013-04-27 23:24:00,59.9,54.7,30.02,ENE,69,0.0,2.0,83,0.00,,,0.00,Wunderground v.1.15,2013-04-28 04:24:00,
2013-04-27 23:30:00,59.6,54.8,30.02,East,80,1.0,1.0,84,0.00,,,0.00,Wunderground v.1.15,2013-04-28 04:30:00,
2013-04-27 23:36:00,59.4,54.6,30.02,East,82,1.0,1.0,84,0.00,,,0.00,Wunderground v.1.15,2013-04-28 04:36:00,
2013-04-27 23:41:00,59.2,54.4,30.02,East,93,1.0,1.0,84,0.00,,,0.00,Wunderground v.1.15,2013-04-28 04:41:00,
2013-04-27 23:47:00,59.1,54.3,30.02,ESE,111,1.0,2.0,84,0.00,,,0.00,Wunderground v.1.15,2013-04-28 04:47:00,
2013-04-27 23:52:00,59.0,54.5,30.02,ENE,74,1.0,1.0,85,0.00,,,0.00,Wunderground v.1.15,2013-04-28 04:52:00,
2013-04-27 23:58:00,58.8,54.3,30.02,NE,47,1.0,3.0,85,0.00,,,0.00,Wunderground v.1.15,2013-04-28 04:58:00,